Showing default

COSMOS 2508, 40921

Orbit data source: Space-Track

COSMOS 2508, 40921 is a payload satellite owned by VVKO VKS (CIS) in LEO that was launched on Wed, 23 Sep 2015 UTC via an ROKOT launch vehicle from the Plesetsk Missile And Space Complex (PKMTR). Payload-class satellites include a variety of spacecraft equipped with specific instruments for various scientific and technological missions. These include communications satellites like Starlink; space stations such as the ISS; scientific satellites like the Hubble; Earth observation satellites from companies like Planet Labs, Umbra, and HawkEye 360; GPS; miniature CubeSats for education and research; and military/defense satellites.

Loading next visibility...
Identifier
40921, 2015-050B
Orbit
LEO
Country
Flag of CISCIS
Related business
Manufacturer
Resehetnev ISS
Mission
Operational Defense Communications
Bus & Motor
STRELA-3M, Unknown motor
Mass
280 kg wet, 280 kg dry
Launch date (UTC)
2015-09-23 (10 years ago)
Launch vehicle
ROKOT
Launch site
Plesetsk Missile And Space Complex (PKMTR)
Object type
Payload
Rocket body
Debris
Shape & HBR
Cyl + 1 Ant, 3.5 m
Radar Cross Section
1.583 m², Large (>1 m²)

Expand to show TLE details & history
Last TLE update: 6 hours ago

TLE from 6 hours ago
0 COSMOS 2508
1 40921U 15050B   25343.62028123  .00000100  00000-0  64646-3 0  9998
2 40921  82.4865 196.2458 0014540  76.5357 283.7342 12.42906450463299
Epoch: 2025-12-09T14:53Z
TLE epoch observation values (Epoch: 2025-12-09T14:53:12.298Z)
Latitude
-0.00001°
Longitude
-105.65779°
Altitude
1,494.303 km
Speed
7.118 km/s
True Right ascension
13h 04m 58s
True Declination
0° 00' 00"
Sunlit
Object was in daylight at epoch
Visualization orbit readout
Latitude
Unknown
Longitude
Unknown
Altitude
Unknown
Speed
Unknown
Apparent Right ascension
Unknown
Apparent Declination
Unknown
Sunlit
N/A
Visualization observer readout
Local Sidereal Time
19:07:19
Azimuth
Unknown
Elevation
Unknown
Doppler factor
Unknown
Orbital elements
Apogee altitude
1,503.101 km
Perigee altitude
1,480.215 km
Semi-major axis
7,869.795 km
Eccentricity
0.00145
Inclination
82.4865°
RAAN
196.2458°
Arg. of periapsis
76.5357°
True anomaly
283.57228°
Mean anomaly
283.7342°
Eccentric anomaly
283.65325°
Mean motion
3.10884 °/min
Orbital period
115.8 mins
BSTAR
0.00064646
Loading maneuver chart data...
Computing Atmospheric mass density...
Loading historical data...
Loading historical data...
Loading historical data...
Loading historical data...
Loading historical data...
Loading historical data...
Loading historical data...
Other satellites on launch #50 in the year 2015 (2015-09-23 UTC)

Documentation

Showing up to 5 results
|